Terminal Aerodrome Forecast
Issued by NWS Raleigh/Durham, NC

Home | Current Version | Previous Version | Text Only | Print | Product List | Glossary On
Versions: 1 2 3 4 5 6 7 8 9 10 11 12 13 14 15 16 17 18 19 20 21 22 23 24 25 26 27 28 29 30 31 32 33 34 35 36 37 38 39 40 41 42 43 44
000
FTUS42 KRAH 292332
TAFRDU
TAF
KRDU 292332Z 3000/3024 08008KT P6SM SCT024 OVC035
     FM300600 VRB02KT 4SM BR BKN015
     FM300800 VRB02KT 2SM BR BKN005
     FM301300 16003KT 4SM BR SCT007 BKN020
     FM301500 17004KT P6SM SCT040 BKN250=

USA.gov is the U.S. government's official web portal to all federal, state and local government web resources and services.